Location: ??????
(55.6130°N, 37.7882°E)
Time: 13:26:02
(UTC+00:00)

METEOR 2-5 DEB - Visible Passes

Search period start: 14 September 2024 00:00
Search period end: 24 September 2024 00:00
Orbit: 823 x 848 km, 81.2° (Epoch: 13 September)

Date Brightness Start Highest point End Pass type
(mag) Time Alt. Az. Time Alt. Az. Time Alt. Az.
14 Sep ? 17:01:27 10° NNW 17:07:07 87° WSW 17:12:44 10° S visible
14 Sep ? 18:45:11 10° NW 18:48:56 19° W 18:52:40 10° WSW visible
15 Sep ? 16:44:49 10° NNW 16:50:29 83° ENE 16:56:06 10° SSE visible
15 Sep ? 18:28:20 10° NW 18:32:26 21° W 18:36:30 10° SW visible
16 Sep ? 16:28:10 10° NNW 16:33:49 73° ENE 16:39:24 10° SSE visible
16 Sep ? 18:11:29 10° NNW 18:15:54 24° W 18:20:16 10° SW visible
17 Sep ? 16:11:30 10° N 16:17:07 64° ENE 16:22:40 10° SSE visible
17 Sep ? 17:54:40 10° NNW 17:59:20 27° W 18:03:57 10° SW visible
18 Sep ? 17:37:51 10° NNW 17:42:43 31° W 17:47:34 10° SSW visible
19 Sep ? 17:21:01 10° NNW 17:26:05 36° W 17:31:06 10° SSW visible
20 Sep ? 17:04:11 10° NNW 17:09:24 41° W 17:14:35 10° SSW visible
21 Sep ? 16:47:20 10° NNW 16:52:42 47° W 16:57:59 10° SSW visible
22 Sep ? 16:30:29 10° NNW 16:35:57 54° W 16:41:21 10° S visible
22 Sep ? 18:15:56 10° WNW 18:17:17 11° WNW 18:18:36 10° W visible
23 Sep ? 16:13:37 10° NNW 16:19:10 62° W 16:24:39 10° S visible
23 Sep ? 17:58:17 10° NW 18:00:37 13° WNW 18:02:57 10° WSW visible
